[[{"header":{"parameterUnit":"m.s-1","parameterCategory":2,"la1":30.2991,"la2":30.254,"lo1":-89.0895,"lo2":-89.0444,"dy":0.0017,"dx":0.0017,"nx":28,"ny":28,"refTime":"2023-10-09T21:00:00:Z","depth":"0","parameterNumber":2,"parameterNumberName":"U-component_of_CURRENTS"},"data":[0,0,0,0,0,0,0,0,0,0,0,0,0,0,0,0,0,0,0,0,0,0,0,0,0,0,0,0,0,0,0,0,0,0,0,0,0,0,0,0,0,0,0,0,0,0,0,0,0,0,0,0,0,0,0,0,0,0,0.2183,0.2182,0,0.2158,0.2158,0.2158,0.2132,0.2132,0.2132,0.2131,0.2064,0.2063,0.2061,0,0,0,0,0,0,0,0,0,0,0,0,0,0.2219,0.2218,0.2183,0.2182,0.2182,0.2158,0.2158,0.2158,0.2132,0.2132,0.2132,0.2131,0.2065,0.2063,0.2061,0,0,0,0,0,0,0,0,0,0,0,0,0,0.22,0.2218,0.2183,0.2166,0.2165,0.2158,0.2158,0.2158,0.2133,0.2132,0.2131,0.2131,0.2065,0.2063,0.2061,0.2059,0,0,0.2055,0.2054,0,0,0,0,0,0,0,0,0.2201,0.2199,0.2169,0.2167,0.2165,0.2147,0.2146,0.2122,0.2133,0.2145,0.2131,0.2131,0.2088,0.2084,0.2082,0.2056,0.2053,0.2054,0.2053,0.2052,0.2052,0,0,0,0,0,0,0,0.2202,0.22,0.2173,0.2169,0.2167,0.2164,0.2161,0.2142,0.212,0.2144,0.2142,0.2139,0.2087,0.2084,0.208,0.2052,0.2054,0.2052,0.2051,0.205,0.2109,0.2112,0,0,0,0,0,0,0.2205,0.2201,0.2174,0.2172,0.2182,0.2164,0.216,0.2154,0.2121,0.2115,0.2139,0.2138,0.2088,0.2083,0.2078,0.2109,0.2052,0.205,0.2049,0.2107,0.211,0.2113,0,0,0,0,0,0,0.2206,0.2202,0.2175,0.2186,0.2182,0.2164,0.2157,0.2154,0.2154,0.2118,0.2111,0.2143,0.2087,0.2081,0.21,0.2105,0.2049,0.2047,0.2103,0.2108,0.2112,0.2149,0,0,0,0,0,0,0.2207,0.2203,0.2209,0.2186,0.2182,0.2182,0.2158,0.2154,0.2153,0.215,0.2119,0.2112,0.2087,0.2104,0.2098,0.2101,0.2046,0.21,0.2105,0.211,0.2144,0.2154,0.2162,0,0,0,0,0,0.2208,0.2217,0.221,0.2207,0.2188,0.2182,0.2181,0.2165,0.2154,0.2162,0.2163,0.2113,0.2133,0.2105,0.2097,0.2099,0.2097,0.2104,0.211,0.214,0.2152,0.2162,0,0,0,0,0,0,0.2245,0.2214,0.2206,0.2208,0.2201,0.2178,0.2183,0.2172,0.2178,0.2179,0.2145,0.214,0.2162,0.2142,0.2111,0.2142,0.2108,0.2114,0.2134,0.2145,0.2154,0.2132,0.2044,0,0,0,0,0,0.2254,0.2257,0.2226,0.224,0.2225,0.2206,0.2205,0.2196,0.2192,0.2193,0.2175,0.2173,0.2183,0.2173,0.2179,0.2184,0.2143,0.2188,0.2197,0.2204,0.2189,0.2151,0.2153,0.2134,0.2134,0.2134,0,0,0.2284,0.2263,0.2272,0.2249,0.2236,0.223,0.2204,0.2206,0.2212,0.2185,0.2197,0.2204,0.2199,0.2219,0.2225,0.2196,0.2196,0.2213,0.2218,0.2198,0.2158,0.2159,0.216,0.2139,0.2138,0.2137,0,0,0.2326,0.231,0.2313,0.2301,0.228,0.2265,0.2266,0.2245,0.2242,0.2262,0.2256,0.2273,0.2272,0.227,0.227,0.2334,0.2256,0.234,0.2344,0.2309,0.2308,0.2307,0.227,0.2265,0.233,0.233,0.233,0,0.2363,0.2346,0.232,0.231,0.2303,0.228,0.2279,0.2278,0.2277,0.2278,0.2275,0.2298,0.2294,0.2309,0.2339,0.2346,0.2312,0.2292,0.2314,0.2312,0.231,0.2272,0.2266,0.2333,0.2333,0.2332,0.2332,0,0.2389,0.2378,0.2377,0.2352,0.2351,0.2349,0.233,0.2338,0.2332,0.2326,0.2346,0.2353,0.2356,0.237,0.2369,0.2366,0.2343,0.2335,0.2269,0.2313,0.2272,0.2265,0.2337,0.2336,0.2335,0.2334,0,0,0.2445,0.2403,0.2398,0.2388,0.2365,0.2365,0.2378,0.2369,0.2372,0.2379,0.238,0.2409,0.2396,0.2398,0.2397,0.2368,0.2339,0.2342,0.2339,0.2275,0.225,0.218,0.2165,0.2322,0.2321,0.232,0.2229,0,0.2464,0.2449,0.2425,0.2428,0.2412,0.2398,0.241,0.2413,0.241,0.2412,0.2407,0.2417,0.241,0.2414,0.2386,0.2357,0.2321,0.2364,0.2243,0.224,0.2146,0.2155,0.2067,0.1974,0.2222,0.2221,0.222,0,0.2474,0.2457,0.2455,0.2438,0.2429,0.2438,0.2438,0.2447,0.2446,0.2444,0.244,0.2432,0.2413,0.2402,0.2325,0.2348,0.2299,0.2267,0.2262,0.217,0.2155,0.1972,0.1951,0.1883,0.2208,0.2209,0.221,0,0.2503,0.2473,0.2471,0.2467,0.2452,0.2456,0.2454,0.2457,0.2458,0.2459,0.2456,0.243,0.241,0.2351,0.2283,0.2298,0.2184,0.2196,0.2084,0.2079,0.1965,0.1951,0.1832,0.2128,0.2128,0.2128,0.2128,0,0.2521,0.2512,0.248,0.2484,0.2479,0.2471,0.2476,0.2477,0.2475,0.2467,0.2465,0.2443,0.2391,0.2326,0.2271,0.214,0.2164,0.2069,0.2043,0.1981,0.1971,0.1875,0.1859,0.2125,0.2125,0.2126,0.2127,0,0.2556,0.2532,0.2527,0.2508,0.2493,0.2498,0.2479,0.248,0.2481,0.247,0.2469,0.2435,0.2338,0.2273,0.2167,0.2106,0.193,0.1959,0.1888,0.1855,0.169,0.168,0.1462,0.1437,0.1817,0.1815,0.1813,0,0.2566,0.2569,0.2552,0.2533,0.2518,0.2506,0.2491,0.2485,0.2477,0.2453,0.244,0.2362,0.228,0.2101,0.1981,0.1844,0.1808,0.1694,0.1709,0.1646,0.1617,0.1576,0.1571,0.1584,0.158,0.1577,0.1574,0,0.2591,0.2595,0.26,0.2556,0.253,0.2501,0.2475,0.2461,0.2446,0.2416,0.234,0.2274,0.2111,0.1916,0.1756,0.167,0.1597,0.1626,0.1571,0.1421,0.1354,0.133,0.1689,0.1547,0.155,0.1552,0.1553,0.1554,0.2615,0.2621,0.2614,0.2558,0.2522,0.246,0.2399,0.237,0.2315,0.2197,0.2222,0.2047,0.1887,0.1637,0.1539,0.1319,0.1377,0.1253,0.1246,0.1209,0.1174,0.147,0.1297,0.1298,0.1299,0.13,0.1301,0,0.2598,0.2601,0.2588,0.2509,0.2421,0.2415,0.2344,0.2249,0.212,0.2038,0.1934,0.1698,0.1489,0.1326,0.1092,0.0971,0.0946,0.091,0.0846,0.0866,0.1124,0.1105,0.0868,0.0868,0.0868,0.0868,0.0868,0.0868,0.2603,0.2572,0.255,0.239,0.2317,0.2165,0.2089,0.1971,0.1872,0.1615,0.1425,0.1344,0.1186,0.0931,0.0713,0.0681,0.0631,0.054,0.0592,0.0789,0.0822,0.0853,0.0831,0.054,0.054,0.0307,0.0305,0.0303]},{"header":{"parameterUnit":"m.s-1","parameterCategory":2,"la1":30.2991,"la2":30.254,"lo1":-89.0895,"lo2":-89.0444,"dy":0.0017,"dx":0.0017,"nx":28,"ny":28,"refTime":"2023-10-09T21:00:00:Z","depth":"0","parameterNumber":3,"parameterNumberName":"V-component_of_CURRENTS"},"data":[0,0,0,0,0,0,0,0,0,0,0,0,0,0,0,0,0,0,0,0,0,0,0,0,0,0,0,0,0,0,0,0,0,0,0,0,0,0,0,0,0,0,0,0,0,0,0,0,0,0,0,0,0,0,0,0,0,0,0.0453,0.0454,0,0.0496,0.0496,0.0497,0.0501,0.0501,0.0501,0.05,0.0498,0.0498,0.0499,0,0,0,0,0,0,0,0,0,0,0,0,0,0.0345,0.0347,0.0453,0.0454,0.0454,0.0496,0.0496,0.0497,0.0501,0.0501,0.0501,0.05,0.0498,0.0498,0.0499,0,0,0,0,0,0,0,0,0,0,0,0,0,0.0389,0.0347,0.0453,0.0463,0.0464,0.0496,0.0496,0.0497,0.0501,0.0501,0.05,0.05,0.0498,0.0498,0.0499,0.051,0,0,0.05,0.05,0,0,0,0,0,0,0,0,0.0386,0.0393,0.046,0.0462,0.0464,0.0494,0.0458,0.05,0.0501,0.0486,0.05,0.05,0.0494,0.0495,0.0502,0.051,0.051,0.05,0.05,0.05,0.05,0,0,0,0,0,0,0,0.0383,0.0391,0.0469,0.0461,0.0463,0.0455,0.046,0.0466,0.049,0.0487,0.0488,0.0495,0.0494,0.0502,0.0502,0.051,0.05,0.05,0.05,0.0501,0.0523,0.0524,0,0,0,0,0,0,0.0384,0.0388,0.0467,0.047,0.0425,0.0457,0.0464,0.0484,0.0491,0.0492,0.0495,0.0495,0.0502,0.0502,0.0502,0.0523,0.05,0.0501,0.0501,0.0523,0.0524,0.0524,0,0,0,0,0,0,0.0381,0.0391,0.0466,0.043,0.0439,0.046,0.0482,0.0485,0.0493,0.0498,0.0498,0.0501,0.0501,0.0502,0.0511,0.0522,0.0501,0.0501,0.0523,0.0523,0.0524,0.0559,0,0,0,0,0,0,0.0378,0.039,0.0399,0.0431,0.0441,0.0489,0.0483,0.0486,0.0499,0.0499,0.0503,0.0502,0.0501,0.0511,0.0512,0.0522,0.0501,0.0522,0.0523,0.0524,0.0557,0.0561,0.0564,0,0,0,0,0,0.0374,0.0395,0.04,0.0409,0.0456,0.0489,0.0494,0.0505,0.05,0.0509,0.0511,0.0502,0.0516,0.0512,0.0513,0.0523,0.0522,0.0523,0.0524,0.0556,0.056,0.0563,0,0,0,0,0,0,0.0349,0.0399,0.0404,0.0438,0.0462,0.0491,0.0502,0.0507,0.0517,0.0515,0.0512,0.0512,0.0524,0.0518,0.0514,0.0531,0.0516,0.0517,0.054,0.0544,0.0547,0.0558,0.0502,0,0,0,0,0,0.035,0.0379,0.0417,0.044,0.0456,0.0478,0.049,0.05,0.0515,0.052,0.0523,0.0524,0.053,0.0532,0.0536,0.0547,0.0533,0.0553,0.0556,0.0559,0.0567,0.0556,0.0559,0.0527,0.0527,0.0527,0,0,0.0343,0.0376,0.039,0.0437,0.0457,0.0486,0.0484,0.051,0.0528,0.0517,0.0538,0.0537,0.0535,0.055,0.0554,0.0546,0.0557,0.056,0.0562,0.057,0.0557,0.056,0.0563,0.0528,0.0527,0.0527,0,0,0.0353,0.0379,0.0409,0.0435,0.0473,0.049,0.0498,0.053,0.0539,0.056,0.0556,0.0562,0.0571,0.0575,0.0576,0.0598,0.0576,0.0595,0.0621,0.0609,0.0612,0.0614,0.0589,0.0589,0.0596,0.0596,0.0596,0,0.0339,0.039,0.0419,0.0455,0.0477,0.0493,0.0525,0.054,0.0567,0.0581,0.0569,0.0591,0.0584,0.0606,0.0613,0.0606,0.0591,0.0608,0.0614,0.0616,0.0617,0.0591,0.059,0.0598,0.0597,0.0597,0.0597,0,0.0379,0.0413,0.0434,0.0487,0.0512,0.0542,0.0572,0.0592,0.06,0.0615,0.0639,0.0633,0.0646,0.0641,0.0634,0.0648,0.0629,0.062,0.0605,0.0623,0.0594,0.0592,0.06,0.0599,0.0599,0.0598,0,0,0.0364,0.0445,0.0451,0.0484,0.0533,0.0563,0.0595,0.0637,0.0666,0.0674,0.0707,0.0707,0.0704,0.0705,0.0694,0.0682,0.0671,0.0658,0.0657,0.0635,0.0636,0.0645,0.0643,0.0663,0.0663,0.0663,0.0607,0,0.0384,0.0457,0.049,0.0548,0.0588,0.0616,0.0649,0.0684,0.0705,0.074,0.0735,0.0758,0.0727,0.0736,0.072,0.0692,0.0671,0.0687,0.0621,0.0619,0.0627,0.0644,0.0691,0.0648,0.0605,0.0605,0.0605,0,0.0416,0.0463,0.0527,0.0598,0.0618,0.0649,0.0713,0.0745,0.0789,0.0805,0.0822,0.0822,0.0819,0.0786,0.0735,0.0747,0.0695,0.0661,0.0658,0.0657,0.0626,0.0626,0.0647,0.0662,0.0602,0.0603,0.0603,0,0.0413,0.049,0.0542,0.0567,0.0644,0.0675,0.0713,0.0765,0.0807,0.0848,0.088,0.0871,0.0875,0.0817,0.0748,0.0742,0.0684,0.0663,0.0618,0.0617,0.0641,0.0642,0.0674,0.062,0.062,0.062,0.0621,0,0.0433,0.0476,0.0547,0.0579,0.0645,0.0689,0.0756,0.0795,0.0853,0.0914,0.0912,0.095,0.0884,0.0849,0.0769,0.0695,0.0695,0.063,0.0611,0.0653,0.0656,0.0657,0.0653,0.0618,0.0619,0.0619,0.062,0,0.0435,0.0478,0.0543,0.062,0.065,0.0697,0.0789,0.084,0.0887,0.0966,0.0984,0.1007,0.0966,0.0887,0.0794,0.073,0.0665,0.0617,0.0666,0.0655,0.064,0.0635,0.062,0.066,0.0566,0.0566,0.0567,0,0.0448,0.0481,0.0569,0.0611,0.065,0.0724,0.0783,0.0851,0.091,0.1005,0.1046,0.1044,0.1058,0.0929,0.0816,0.0687,0.0668,0.0641,0.0643,0.0658,0.0638,0.0626,0.0661,0.0676,0.0676,0.0677,0.0678,0,0.0469,0.0494,0.0553,0.0631,0.0696,0.0772,0.0858,0.0912,0.1002,0.1074,0.1155,0.1176,0.1089,0.1007,0.0845,0.0757,0.0693,0.0653,0.0663,0.0731,0.0725,0.0749,0.0679,0.0684,0.0684,0.0683,0.0683,0.0683,0.0481,0.052,0.0587,0.0663,0.0736,0.0816,0.0879,0.0974,0.1075,0.1196,0.1214,0.1259,0.1173,0.0976,0.0877,0.0755,0.0734,0.0721,0.0711,0.0693,0.0756,0.0699,0.0691,0.069,0.069,0.0689,0.0689,0,0.0491,0.0543,0.0616,0.0705,0.0775,0.0812,0.0931,0.1003,0.1123,0.1228,0.1303,0.1291,0.1188,0.1054,0.0887,0.083,0.0819,0.0796,0.0805,0.0836,0.0783,0.0815,0.0843,0.0843,0.0843,0.0843,0.0843,0.0843,0.0503,0.0564,0.0604,0.0715,0.0779,0.087,0.0935,0.1055,0.115,0.1277,0.1315,0.1335,0.1261,0.1012,0.0897,0.0876,0.0893,0.086,0.0862,0.0836,0.0829,0.0822,0.0854,0.089,0.089,0.0956,0.0956,0.0957]}],[{"header":{"parameterUnit":"m.s-1","parameterCategory":2,"la1":30.2991,"la2":30.254,"lo1":-89.0895,"lo2":-89.0444,"dy":0.0017,"dx":0.0017,"nx":28,"ny":28,"refTime":"2023-10-09T21:00:00:Z","depth":"2","parameterNumber":2,"parameterNumberName":"U-component_of_CURRENTS"},"data":[0,0,0,0,0,0,0,0,0,0,0,0,0,0,0,0,0,0,0,0,0,0,0,0,0,0,0,0,0,0,0,0,0,0,0,0,0,0,0,0,0,0,0,0,0,0,0,0,0,0,0,0,0,0,0,0,0,0,0.1573,0.1574,0,0.1596,0.1596,0.1596,0.1605,0.1605,0.1605,0.1605,0.1618,0.1618,0.1618,0,0,0,0,0,0,0,0,0,0,0,0,0,0.1546,0.1547,0.1573,0.1574,0.1574,0.1596,0.1596,0.1596,0.1605,0.1605,0.1605,0.1605,0.1618,0.1618,0.1618,0,0,0,0,0,0,0,0,0,0,0,0,0,0.1561,0.1547,0.1573,0.1582,0.1583,0.1596,0.1596,0.1597,0.1605,0.1605,0.1605,0.1605,0.1618,0.1618,0.1618,0.162,0,0,0.162,0.162,0,0,0,0,0,0,0,0,0.156,0.1562,0.158,0.1581,0.1583,0.1599,0.1592,0.1604,0.1605,0.1595,0.1605,0.1605,0.1611,0.1612,0.1615,0.162,0.1621,0.162,0.162,0.162,0.162,0,0,0,0,0,0,0,0.1559,0.1561,0.1581,0.1581,0.1582,0.1588,0.159,0.1594,0.1601,0.1596,0.1597,0.1601,0.1612,0.1614,0.1615,0.1621,0.162,0.162,0.1621,0.1621,0.1701,0.1703,0,0,0,0,0,0,0.1559,0.156,0.158,0.1582,0.1573,0.1588,0.1591,0.1592,0.1601,0.1603,0.1601,0.1602,0.1613,0.1614,0.1615,0.1656,0.162,0.1621,0.1621,0.1699,0.1701,0.1703,0,0,0,0,0,0,0.1558,0.156,0.1579,0.1573,0.1576,0.1589,0.1591,0.1593,0.16,0.1606,0.1608,0.1607,0.1613,0.1615,0.1631,0.1655,0.1621,0.1621,0.1697,0.17,0.1702,0.1713,0,0,0,0,0,0,0.1557,0.156,0.1565,0.1573,0.1576,0.1585,0.1591,0.1593,0.1603,0.1604,0.1611,0.1612,0.1614,0.163,0.1631,0.1655,0.1622,0.1695,0.1698,0.1702,0.171,0.1716,0.172,0,0,0,0,0,0.1556,0.1557,0.1565,0.1568,0.1581,0.1585,0.1587,0.1596,0.1603,0.1603,0.1618,0.1612,0.1654,0.1631,0.1632,0.1657,0.1693,0.1697,0.1701,0.1708,0.1714,0.172,0,0,0,0,0,0,0.1552,0.1559,0.1567,0.1572,0.1579,0.1587,0.1596,0.1599,0.161,0.1622,0.1621,0.1623,0.1657,0.1656,0.1631,0.1696,0.1679,0.1683,0.1684,0.169,0.1695,0.1691,0.1622,0,0,0,0,0,0.1553,0.1556,0.1564,0.1571,0.1577,0.1588,0.1594,0.1603,0.1614,0.1619,0.1628,0.165,0.1675,0.1679,0.1703,0.1719,0.1705,0.1744,0.1749,0.1753,0.1754,0.1753,0.1757,0.1717,0.1717,0.1717,0,0,0.1548,0.156,0.1558,0.1571,0.1583,0.159,0.1592,0.1608,0.1619,0.1619,0.1644,0.1669,0.1687,0.172,0.1734,0.1717,0.1757,0.1758,0.1761,0.176,0.1757,0.1761,0.1764,0.172,0.1719,0.1719,0,0,0.1554,0.1559,0.1568,0.1573,0.1597,0.1601,0.1605,0.1623,0.1636,0.1659,0.1678,0.1709,0.1736,0.1754,0.1766,0.1811,0.1792,0.1834,0.1841,0.184,0.1842,0.1844,0.1819,0.1819,0.1826,0.1826,0.1826,0,0.1568,0.1565,0.157,0.1586,0.1592,0.1605,0.1616,0.1627,0.165,0.1671,0.1673,0.1743,0.1752,0.179,0.1814,0.1819,0.181,0.1809,0.1843,0.1844,0.1846,0.182,0.1819,0.1827,0.1827,0.1826,0.1826,0,0.157,0.1575,0.1582,0.1601,0.1609,0.1619,0.1636,0.1658,0.168,0.1698,0.1752,0.1772,0.1809,0.1828,0.1831,0.1865,0.1851,0.1853,0.1816,0.185,0.1821,0.182,0.1828,0.1828,0.1827,0.1827,0,0,0.159,0.1587,0.159,0.1596,0.1618,0.1624,0.1653,0.1681,0.1704,0.1741,0.1774,0.1825,0.1845,0.1861,0.1876,0.1876,0.1874,0.1871,0.187,0.1827,0.1856,0.1776,0.1766,0.188,0.1881,0.1881,0.1826,0,0.1599,0.1613,0.1612,0.1621,0.1625,0.1646,0.1665,0.1699,0.1729,0.1763,0.1803,0.1843,0.1852,0.1878,0.188,0.1888,0.1875,0.1888,0.1848,0.1846,0.1755,0.1764,0.1636,0.1571,0.1825,0.1824,0.1824,0,0.16,0.1608,0.1617,0.1626,0.1633,0.1645,0.1684,0.1706,0.1759,0.1787,0.1835,0.1865,0.1895,0.1891,0.1892,0.1902,0.1881,0.1872,0.187,0.179,0.1764,0.1585,0.156,0.1822,0.1822,0.1822,0.1823,0,0.1592,0.1608,0.1613,0.1614,0.1632,0.1655,0.1676,0.1725,0.1754,0.181,0.1838,0.1876,0.1897,0.1891,0.1879,0.189,0.1859,0.1865,0.1766,0.1759,0.1639,0.1621,0.185,0.185,0.185,0.185,0.185,0,0.1583,0.1583,0.161,0.1607,0.1633,0.1653,0.1689,0.1722,0.1771,0.1798,0.1852,0.1868,0.19,0.1892,0.1875,0.1807,0.1849,0.1762,0.1741,0.1639,0.1623,0.1839,0.1839,0.1848,0.1848,0.1849,0.1849,0,0.1547,0.1566,0.1575,0.1606,0.1626,0.1645,0.1698,0.1716,0.1768,0.1804,0.1826,0.1869,0.1849,0.185,0.1828,0.1786,0.1741,0.1703,0.157,0.1534,0.1642,0.1644,0.1588,0.1585,0.1582,0.158,0.1578,0,0.1521,0.1537,0.1571,0.1595,0.1608,0.1646,0.167,0.172,0.1732,0.1788,0.1791,0.1807,0.1783,0.1716,0.1652,0.1581,0.1652,0.1418,0.1416,0.1631,0.1617,0.1622,0.1627,0.1258,0.1254,0.125,0.1248,0,0.1494,0.1518,0.1513,0.1561,0.1595,0.1608,0.164,0.1646,0.1689,0.1708,0.1696,0.1689,0.1636,0.1502,0.1425,0.1371,0.1423,0.1341,0.1596,0.1347,0.1316,0.1304,0.132,0.1216,0.1219,0.1221,0.1223,0.1224,0.147,0.1467,0.1484,0.1518,0.156,0.1546,0.1521,0.1532,0.1524,0.1506,0.1553,0.148,0.1455,0.126,0.1171,0.1094,0.1207,0.1146,0.1159,0.1175,0.1149,0.1116,0.0971,0.0973,0.0974,0.0975,0.0977,0,0.1466,0.1445,0.1451,0.1462,0.1461,0.1503,0.148,0.1412,0.1353,0.1357,0.1327,0.1156,0.1045,0.1015,0.0849,0.0809,0.0818,0.0762,0.0784,0.0816,0.0844,0.0804,0.0533,0.0532,0.053,0.0529,0,0,0.144,0.1429,0.1407,0.1361,0.1373,0.1308,0.1269,0.1191,0.115,0.1052,0.1,0.1041,0.1021,0.0799,0.0734,0.0616,0.0719,0.0574,0.0932,0.0995,0.1022,0.1065,0.1038,0,0,0,0,0]},{"header":{"parameterUnit":"m.s-1","parameterCategory":2,"la1":30.2991,"la2":30.254,"lo1":-89.0895,"lo2":-89.0444,"dy":0.0017,"dx":0.0017,"nx":28,"ny":28,"refTime":"2023-10-09T21:00:00:Z","depth":"2","parameterNumber":3,"parameterNumberName":"V-component_of_CURRENTS"},"data":[0,0,0,0,0,0,0,0,0,0,0,0,0,0,0,0,0,0,0,0,0,0,0,0,0,0,0,0,0,0,0,0,0,0,0,0,0,0,0,0,0,0,0,0,0,0,0,0,0,0,0,0,0,0,0,0,0,0,0.0306,0.0306,0,0.0347,0.0348,0.0348,0.0356,0.0355,0.0355,0.0355,0.0368,0.0369,0.037,0,0,0,0,0,0,0,0,0,0,0,0,0,0.0199,0.0201,0.0305,0.0306,0.0307,0.0347,0.0348,0.0348,0.0356,0.0355,0.0355,0.0355,0.0368,0.0369,0.037,0,0,0,0,0,0,0,0,0,0,0,0,0,0.0243,0.0201,0.0305,0.0316,0.0317,0.0347,0.0348,0.0349,0.0356,0.0355,0.0355,0.0355,0.0368,0.0369,0.037,0.0385,0,0,0.0373,0.0373,0,0,0,0,0,0,0,0,0.024,0.0247,0.0314,0.0315,0.0317,0.0346,0.0315,0.0359,0.0356,0.034,0.0355,0.0354,0.0359,0.0361,0.0369,0.0385,0.0386,0.0373,0.0373,0.0374,0.0374,0,0,0,0,0,0,0,0.0237,0.0245,0.0321,0.0314,0.0316,0.0307,0.0313,0.0324,0.0351,0.0342,0.0343,0.0348,0.036,0.0368,0.0369,0.0386,0.0373,0.0374,0.0374,0.0375,0.0408,0.0409,0,0,0,0,0,0,0.0236,0.0242,0.032,0.0323,0.0277,0.0309,0.0316,0.0337,0.0351,0.0354,0.0349,0.0349,0.0367,0.0368,0.037,0.0396,0.0374,0.0375,0.0375,0.0408,0.0409,0.0409,0,0,0,0,0,0,0.0234,0.0243,0.0318,0.0283,0.0292,0.0312,0.0335,0.0338,0.0347,0.0357,0.0358,0.0354,0.0367,0.0369,0.038,0.0396,0.0375,0.0376,0.0408,0.0408,0.0409,0.0443,0,0,0,0,0,0,0.0231,0.0243,0.0253,0.0283,0.0294,0.034,0.0336,0.0339,0.0351,0.0351,0.0362,0.0363,0.0366,0.0379,0.0381,0.0397,0.0377,0.0407,0.0408,0.0409,0.0441,0.0445,0.0447,0,0,0,0,0,0.0227,0.0251,0.0254,0.0263,0.031,0.0341,0.0346,0.0357,0.0352,0.0362,0.0365,0.0363,0.0384,0.038,0.0383,0.0399,0.0407,0.0408,0.0409,0.044,0.0444,0.0447,0,0,0,0,0,0,0.0207,0.0255,0.0258,0.0294,0.0314,0.0342,0.0354,0.0358,0.037,0.0368,0.037,0.0372,0.0388,0.0386,0.0381,0.0409,0.0394,0.0396,0.0417,0.0421,0.0424,0.0434,0.0377,0,0,0,0,0,0.0208,0.0238,0.0273,0.0297,0.0311,0.033,0.0342,0.0352,0.0367,0.0372,0.0379,0.0384,0.0395,0.0401,0.0409,0.0426,0.0413,0.0436,0.0439,0.0441,0.045,0.0441,0.0444,0.0411,0.0411,0.0411,0,0,0.0201,0.0234,0.0246,0.0294,0.0311,0.034,0.0337,0.0361,0.0381,0.0372,0.0396,0.0396,0.0401,0.0421,0.0428,0.0421,0.0441,0.0442,0.0445,0.0452,0.0442,0.0445,0.0448,0.0412,0.0412,0.0412,0,0,0.0212,0.0238,0.0268,0.0292,0.0327,0.0344,0.0351,0.0382,0.0392,0.0414,0.0412,0.042,0.0436,0.0445,0.0451,0.0473,0.0457,0.0473,0.05,0.0491,0.0494,0.0496,0.0473,0.0473,0.0476,0.0476,0.0476,0,0.0197,0.025,0.0277,0.0313,0.0335,0.0348,0.038,0.0396,0.0422,0.0437,0.0425,0.0452,0.0451,0.048,0.0486,0.0482,0.0468,0.0488,0.0495,0.0497,0.0499,0.0475,0.0475,0.0477,0.0477,0.0477,0.0477,0,0.0238,0.0273,0.0293,0.0347,0.0371,0.0401,0.0431,0.0451,0.0459,0.0475,0.05,0.0497,0.0514,0.0513,0.0508,0.0526,0.0508,0.0499,0.0488,0.0505,0.0478,0.0477,0.048,0.0479,0.0479,0.0478,0,0,0.0224,0.0305,0.0312,0.0344,0.0394,0.0423,0.0458,0.0501,0.0529,0.0538,0.057,0.0579,0.0573,0.0578,0.0569,0.0562,0.0554,0.0539,0.0537,0.0519,0.0524,0.0529,0.0527,0.0546,0.0546,0.0547,0.0497,0,0.0246,0.032,0.0355,0.0413,0.0453,0.048,0.0515,0.055,0.0571,0.0602,0.0601,0.0624,0.0599,0.0606,0.0596,0.0571,0.0555,0.0568,0.0509,0.0507,0.0511,0.0528,0.054,0.0499,0.0495,0.0495,0.0495,0,0.028,0.0329,0.0393,0.0464,0.0484,0.0516,0.0579,0.0613,0.0653,0.0667,0.0683,0.0682,0.0684,0.0653,0.0614,0.0623,0.0578,0.0547,0.0545,0.054,0.0511,0.0483,0.0497,0.0493,0.0493,0.0493,0.0494,0,0.0277,0.0357,0.0411,0.0435,0.0512,0.0543,0.0582,0.0632,0.0672,0.0707,0.0732,0.0729,0.0731,0.0683,0.0624,0.0618,0.0569,0.0551,0.0509,0.0508,0.0503,0.0502,0.0516,0.0516,0.0516,0.0516,0.0517,0,0.0299,0.0343,0.0415,0.0446,0.0513,0.0556,0.0622,0.0659,0.0712,0.0766,0.0763,0.0793,0.0739,0.0709,0.0641,0.0577,0.0579,0.0521,0.0503,0.0514,0.0514,0.05,0.0499,0.0514,0.0515,0.0515,0.0516,0,0.03,0.0342,0.0408,0.0487,0.0517,0.0564,0.0654,0.0705,0.0743,0.0811,0.0826,0.0841,0.0806,0.074,0.0661,0.0606,0.0538,0.0508,0.052,0.0506,0.0473,0.0474,0.0462,0.0462,0.0462,0.0462,0.0462,0,0.031,0.0342,0.0433,0.0476,0.0516,0.0591,0.065,0.0714,0.077,0.0843,0.0879,0.0872,0.0876,0.0765,0.0671,0.0562,0.0534,0.0494,0.0493,0.0488,0.0471,0.0472,0.0474,0.0487,0.0487,0.0487,0.0487,0,0.0331,0.0357,0.0419,0.0499,0.0565,0.0644,0.0729,0.0777,0.0857,0.0908,0.0965,0.0971,0.0893,0.0803,0.0667,0.0592,0.0518,0.0495,0.0488,0.0508,0.051,0.0494,0.0495,0.0489,0.0489,0.0489,0.0488,0.0488,0.0343,0.039,0.0465,0.0539,0.0609,0.0693,0.0756,0.0838,0.0921,0.1,0.1005,0.1003,0.0923,0.075,0.0639,0.0523,0.0536,0.0481,0.0481,0.048,0.0502,0.0505,0.0485,0.0485,0.0484,0.0484,0.0484,0,0.0368,0.0431,0.0505,0.0597,0.0658,0.0698,0.0811,0.0868,0.0957,0.1012,0.1047,0.0939,0.0857,0.0742,0.0589,0.0504,0.0488,0.0453,0.0456,0.0457,0.0457,0.0477,0.0453,0.0453,0.0452,0.0451,0,0,0.0394,0.0467,0.0512,0.0618,0.0677,0.0765,0.0824,0.091,0.0966,0.1002,0.0995,0.0998,0.0884,0.0753,0.0643,0.0549,0.0516,0.0521,0.0561,0.0581,0.0582,0.0495,0.0529,0,0,0,0,0]}],[{"header":{"parameterUnit":"m.s-1","parameterCategory":2,"la1":30.2991,"la2":30.254,"lo1":-89.0895,"lo2":-89.0444,"dy":0.0017,"dx":0.0017,"nx":28,"ny":28,"refTime":"2023-10-09T21:00:00:Z","depth":"4","parameterNumber":2,"parameterNumberName":"U-component_of_CURRENTS"},"data":[0,0,0,0,0,0,0,0,0,0,0,0,0,0,0,0,0,0,0,0,0,0,0,0,0,0,0,0,0,0,0,0,0,0,0,0,0,0,0,0,0,0,0,0,0,0,0,0,0,0,0,0,0,0,0,0,0,0,0.0711,0.0712,0,0.0774,0.0774,0.0775,0.0821,0.0822,0.0822,0.0823,0.0949,0.0952,0.0954,0,0,0,0,0,0,0,0,0,0,0,0,0,0.0638,0.0639,0.0711,0.0712,0.0713,0.0774,0.0774,0.0775,0.0821,0.0822,0.0822,0.0823,0.0948,0.0951,0.0955,0,0,0,0,0,0,0,0,0,0,0,0,0,0.068,0.0639,0.0711,0.0745,0.0748,0.0773,0.0774,0.0775,0.0821,0.0822,0.0823,0.0823,0.0947,0.0951,0.0955,0.0964,0,0,0.0968,0.097,0,0,0,0,0,0,0,0,0.0678,0.0682,0.0739,0.0742,0.0747,0.0792,0.0795,0.0842,0.0821,0.0791,0.0823,0.0824,0.0903,0.0911,0.0917,0.0969,0.0975,0.0968,0.0971,0.0973,0.0974,0,0,0,0,0,0,0,0.0675,0.068,0.0734,0.074,0.0745,0.0759,0.0766,0.0804,0.0841,0.0794,0.0798,0.0808,0.0905,0.0913,0.092,0.0977,0.0968,0.0972,0.0975,0.0976,0.1086,0.1087,0,0,0,0,0,0,0.067,0.0677,0.0732,0.0736,0.0716,0.076,0.0767,0.0775,0.0839,0.085,0.0807,0.081,0.0905,0.0915,0.0925,0.0991,0.0973,0.0977,0.0979,0.1086,0.1087,0.1087,0,0,0,0,0,0,0.0668,0.0674,0.0729,0.071,0.0718,0.076,0.0769,0.0776,0.0798,0.0849,0.0861,0.0823,0.0906,0.0919,0.0961,0.0994,0.0979,0.0982,0.1086,0.1086,0.1087,0.1089,0,0,0,0,0,0,0.0665,0.0673,0.0677,0.0709,0.0719,0.075,0.0768,0.0777,0.0802,0.0807,0.0867,0.0878,0.0908,0.0954,0.0965,0.1,0.0986,0.1085,0.1086,0.1087,0.1088,0.1089,0.109,0,0,0,0,0,0.0662,0.0665,0.0677,0.0684,0.0724,0.0751,0.0757,0.0788,0.0802,0.0811,0.0846,0.0877,0.0968,0.0958,0.0971,0.1007,0.1085,0.1086,0.1087,0.1088,0.1089,0.109,0,0,0,0,0,0,0.0645,0.0671,0.0685,0.0699,0.0726,0.076,0.0778,0.0792,0.0825,0.084,0.0878,0.0892,0.0944,0.0966,0.0954,0.1038,0.1034,0.1037,0.103,0.1032,0.1033,0.103,0.0989,0,0,0,0,0,0.064,0.0647,0.0679,0.0693,0.0711,0.0744,0.0761,0.0783,0.0815,0.0831,0.0872,0.0915,0.0954,0.0984,0.1021,0.1064,0.1078,0.1096,0.1097,0.1097,0.1102,0.1155,0.1162,0.109,0.109,0.109,0,0,0.0634,0.0655,0.0657,0.0689,0.072,0.0739,0.0757,0.0791,0.081,0.0841,0.0887,0.0923,0.0964,0.1013,0.104,0.104,0.1118,0.1099,0.1099,0.1104,0.1157,0.1164,0.1171,0.1091,0.109,0.109,0,0,0.0631,0.0653,0.0659,0.0681,0.0727,0.0747,0.0757,0.08,0.0826,0.0863,0.0894,0.0938,0.1,0.1034,0.1058,0.1085,0.112,0.1109,0.1121,0.1172,0.1179,0.1185,0.118,0.1186,0.1113,0.1113,0.1113,0,0.0625,0.0642,0.0666,0.0687,0.071,0.0749,0.0768,0.0794,0.0843,0.0872,0.0881,0.0975,0.1008,0.1067,0.1077,0.109,0.1111,0.1114,0.1175,0.1181,0.1188,0.1182,0.1188,0.1113,0.1113,0.1113,0.1113,0,0.0627,0.0646,0.0661,0.0694,0.0717,0.0746,0.0785,0.0819,0.0855,0.0885,0.0955,0.0995,0.1053,0.1072,0.1085,0.1153,0.1147,0.1168,0.1172,0.1195,0.1186,0.1193,0.1114,0.1113,0.1113,0.1113,0,0,0.0604,0.0649,0.0659,0.0674,0.0728,0.0745,0.0789,0.0839,0.0873,0.0928,0.0977,0.1039,0.1074,0.1101,0.1133,0.1175,0.122,0.1196,0.1198,0.119,0.1307,0.118,0.1175,0.1269,0.1271,0.1272,0.1271,0,0.0606,0.0632,0.0661,0.069,0.0707,0.0759,0.0793,0.0843,0.0893,0.0949,0.1009,0.1067,0.1082,0.112,0.1165,0.1224,0.1245,0.1217,0.1286,0.1287,0.1173,0.1181,0.1278,0.1276,0.1278,0.1279,0.1279,0,0.0597,0.0621,0.0649,0.0691,0.0707,0.0736,0.0807,0.0841,0.0926,0.0969,0.1041,0.1088,0.1166,0.1168,0.1267,0.1259,0.1278,0.1304,0.1306,0.1195,0.1174,0.1257,0.1292,0.1291,0.129,0.1289,0.1288,0,0.0557,0.0607,0.0631,0.0647,0.0705,0.0743,0.0783,0.086,0.0899,0.0993,0.1035,0.1127,0.1184,0.1248,0.1296,0.1303,0.1383,0.1396,0.1283,0.1273,0.1388,0.1382,0.1442,0.1442,0.1442,0.1442,0.1442,0,0.0531,0.055,0.0622,0.0633,0.0674,0.0727,0.0781,0.0834,0.0918,0.0965,0.1051,0.1094,0.1217,0.1272,0.1307,0.1305,0.1392,0.1277,0.1272,0.1382,0.1376,0.139,0.1384,0.1442,0.1442,0.1442,0.1442,0,0.0469,0.0519,0.0545,0.0623,0.0653,0.0684,0.0772,0.0809,0.0895,0.0961,0.0997,0.1098,0.1168,0.1239,0.133,0.1299,0.132,0.1287,0.1362,0.1363,0.1166,0.1161,0.1166,0.1162,0.1158,0.1155,0.1152,0,0.044,0.0448,0.0524,0.0558,0.0602,0.0662,0.0707,0.0794,0.0834,0.0946,0.0972,0.106,0.1117,0.1133,0.1212,0.1238,0.1227,0.1207,0.1213,0.1147,0.1143,0.1143,0.1142,0.1147,0.1146,0.1145,0.1144,0,0.0385,0.0418,0.044,0.0504,0.0564,0.0597,0.0669,0.0693,0.0794,0.0879,0.0926,0.0958,0.1011,0.1066,0.1081,0.1105,0.1216,0.1169,0.1177,0.1183,0.1124,0.1123,0.1127,0.1131,0.1133,0.1134,0.1135,0,0.0354,0.035,0.0394,0.0447,0.0507,0.0532,0.0568,0.0627,0.0674,0.0813,0.082,0.0912,0.1,0.0993,0.1015,0.102,0.1012,0.0981,0.0999,0.1014,0.0965,0.0867,0.0787,0,0,0,0,0,0.0331,0.032,0.0345,0.0392,0.0442,0.0481,0.0549,0.0591,0.0697,0.0708,0.0764,0.0809,0.084,0.0879,0.0856,0.0935,0.1007,0.0899,0.0979,0.1061,0.1075,0.1032,0,0,0,0,0,0,0.0313,0.0323,0.0318,0.0341,0.0371,0.041,0.0452,0.0517,0.0527,0.0642,0.0668,0.0744,0.0792,0.0855,0.084,0.085,0.0876,0.0955,0.0952,0.1053,0.1066,0.1078,0.1038,0,0,0,0,0]},{"header":{"parameterUnit":"m.s-1","parameterCategory":2,"la1":30.2991,"la2":30.254,"lo1":-89.0895,"lo2":-89.0444,"dy":0.0017,"dx":0.0017,"nx":28,"ny":28,"refTime":"2023-10-09T21:00:00:Z","depth":"4","parameterNumber":3,"parameterNumberName":"V-component_of_CURRENTS"},"data":[0,0,0,0,0,0,0,0,0,0,0,0,0,0,0,0,0,0,0,0,0,0,0,0,0,0,0,0,0,0,0,0,0,0,0,0,0,0,0,0,0,0,0,0,0,0,0,0,0,0,0,0,0,0,0,0,0,0,0.0261,0.0261,0,0.0286,0.0287,0.0287,0.0296,0.0296,0.0296,0.0296,0.0314,0.0315,0.0316,0,0,0,0,0,0,0,0,0,0,0,0,0,0.0196,0.0197,0.0261,0.0261,0.0262,0.0286,0.0287,0.0287,0.0297,0.0296,0.0296,0.0296,0.0314,0.0315,0.0316,0,0,0,0,0,0,0,0,0,0,0,0,0,0.0224,0.0198,0.0261,0.0269,0.0269,0.0286,0.0287,0.0287,0.0297,0.0296,0.0296,0.0296,0.0314,0.0315,0.0316,0.0326,0,0,0.0319,0.0319,0,0,0,0,0,0,0,0,0.0222,0.0226,0.0267,0.0268,0.0269,0.0287,0.027,0.03,0.0297,0.0287,0.0296,0.0296,0.0304,0.0306,0.0313,0.0327,0.0328,0.0319,0.0319,0.032,0.032,0,0,0,0,0,0,0,0.022,0.0225,0.0272,0.0267,0.0269,0.0262,0.0266,0.0276,0.0297,0.0288,0.0289,0.029,0.0305,0.0312,0.0313,0.0328,0.0319,0.0319,0.032,0.032,0.0357,0.0357,0,0,0,0,0,0,0.0217,0.0224,0.0271,0.0273,0.0244,0.0263,0.0268,0.0282,0.0297,0.0299,0.029,0.029,0.031,0.0312,0.0314,0.0344,0.032,0.0321,0.0321,0.0356,0.0357,0.0357,0,0,0,0,0,0,0.0216,0.0222,0.027,0.0247,0.0253,0.0265,0.0281,0.0283,0.0292,0.0299,0.0301,0.0297,0.031,0.0312,0.0328,0.0344,0.0321,0.0322,0.0356,0.0356,0.0357,0.0394,0,0,0,0,0,0,0.0214,0.0222,0.023,0.0247,0.0254,0.0284,0.0281,0.0284,0.0293,0.0294,0.0306,0.0307,0.031,0.0327,0.0329,0.0345,0.0323,0.0355,0.0356,0.0357,0.0392,0.0395,0.0398,0,0,0,0,0,0.0212,0.0229,0.0231,0.0236,0.0266,0.0285,0.0288,0.0295,0.0294,0.0302,0.031,0.0307,0.0333,0.0328,0.0331,0.0347,0.0355,0.0356,0.0357,0.0391,0.0395,0.0398,0,0,0,0,0,0,0.0204,0.0232,0.0234,0.0258,0.027,0.0286,0.0294,0.0298,0.0311,0.0312,0.0316,0.0318,0.0338,0.0335,0.033,0.0358,0.0342,0.0343,0.0367,0.0371,0.0374,0.0377,0.0323,0,0,0,0,0,0.0206,0.0228,0.0246,0.0264,0.0271,0.0282,0.0289,0.0296,0.0309,0.0315,0.0324,0.0331,0.0344,0.0351,0.036,0.0377,0.0363,0.0387,0.039,0.0393,0.0397,0.0387,0.039,0.036,0.036,0.036,0,0,0.0207,0.0225,0.0236,0.0263,0.0273,0.0293,0.0287,0.0303,0.0322,0.0315,0.0342,0.0345,0.0351,0.0373,0.038,0.0372,0.0393,0.0394,0.0397,0.0399,0.0388,0.0391,0.0394,0.0361,0.0361,0.036,0,0,0.022,0.0236,0.0257,0.0271,0.0289,0.03,0.0306,0.0325,0.0336,0.036,0.036,0.0371,0.039,0.0398,0.0404,0.0429,0.0411,0.043,0.0451,0.0442,0.0445,0.0447,0.0429,0.0429,0.0431,0.0431,0.0431,0,0.0216,0.0251,0.0264,0.0285,0.03,0.0306,0.0329,0.0344,0.0366,0.0378,0.0372,0.0401,0.0404,0.0431,0.044,0.0438,0.0424,0.0438,0.0447,0.0449,0.045,0.0431,0.0431,0.0433,0.0433,0.0432,0.0432,0,0.0246,0.0271,0.0284,0.0318,0.0335,0.0356,0.0376,0.0394,0.0405,0.0417,0.0443,0.0446,0.046,0.0463,0.0462,0.0478,0.0462,0.0453,0.0438,0.0455,0.0434,0.0433,0.0436,0.0435,0.0434,0.0434,0,0,0.0246,0.0295,0.0301,0.0323,0.0356,0.0376,0.0407,0.044,0.0461,0.0475,0.0499,0.0518,0.051,0.0516,0.0511,0.0505,0.0502,0.0485,0.0484,0.0469,0.0475,0.046,0.0457,0.0494,0.0494,0.0494,0.0455,0,0.0264,0.0312,0.0335,0.0381,0.0406,0.0426,0.0456,0.0484,0.0501,0.0523,0.0526,0.0546,0.0533,0.0538,0.0532,0.0514,0.0502,0.0513,0.0459,0.0457,0.0443,0.0456,0.0495,0.0454,0.0453,0.0453,0.0453,0,0.0288,0.0319,0.0367,0.0418,0.0432,0.0461,0.0508,0.0536,0.0564,0.0574,0.0587,0.0584,0.059,0.0567,0.0542,0.055,0.0515,0.0493,0.0491,0.0464,0.044,0.0433,0.0451,0.0451,0.0451,0.0451,0.0451,0,0.0287,0.0343,0.0385,0.0402,0.0457,0.0485,0.0517,0.0553,0.0581,0.0604,0.0617,0.0618,0.0619,0.0585,0.0544,0.0542,0.0503,0.0491,0.0443,0.044,0.0449,0.0447,0.0463,0.0463,0.0463,0.0463,0.0463,0,0.0302,0.0337,0.039,0.0413,0.0464,0.0497,0.0549,0.0575,0.0611,0.0643,0.0642,0.0652,0.0623,0.0598,0.0553,0.0498,0.0507,0.0449,0.0433,0.0464,0.0465,0.0448,0.0446,0.0461,0.0462,0.0462,0.0462,0,0.0302,0.0334,0.0382,0.0443,0.0467,0.0503,0.0573,0.0608,0.0634,0.0672,0.0681,0.0681,0.0652,0.0613,0.0556,0.051,0.0457,0.043,0.0465,0.0451,0.0395,0.0397,0.0374,0.0373,0.0373,0.0372,0.0372,0,0.0306,0.033,0.0401,0.0432,0.0465,0.0522,0.0568,0.0616,0.0651,0.0686,0.0702,0.069,0.068,0.0587,0.0542,0.0457,0.0439,0.0403,0.0403,0.0402,0.0388,0.039,0.0392,0.0371,0.0371,0.037,0.037,0,0.031,0.0336,0.0381,0.0443,0.0495,0.0551,0.0615,0.0637,0.069,0.0713,0.0711,0.0674,0.064,0.0577,0.0516,0.0453,0.0426,0.0395,0.0396,0.0396,0.0397,0.0385,0.0387,0.0368,0.0368,0.0368,0.0369,0,0.0313,0.0342,0.04,0.0458,0.0515,0.0566,0.06,0.0644,0.0677,0.0712,0.0706,0.0674,0.0662,0.0574,0.0516,0.046,0.0439,0.0402,0.0402,0.0404,0.0427,0.0434,0.0405,0,0,0,0,0,0.0319,0.0359,0.0411,0.0472,0.0527,0.0563,0.063,0.0659,0.0701,0.0698,0.0703,0.0668,0.059,0.0559,0.0498,0.0502,0.043,0.0426,0.0388,0.0355,0.0358,0.0378,0,0,0,0,0,0,0.0325,0.0376,0.0412,0.0474,0.0513,0.0576,0.0617,0.0649,0.0646,0.0672,0.0633,0.063,0.0558,0.0619,0.0488,0.0474,0.0435,0.0401,0.0398,0.0354,0.0356,0.0358,0.038,0,0,0,0,0]}]]